Location: Cambroso
(45.2833°N, 12.0850°E)
Time: 17:00:23
(UTC+00:00)

SAR-Lupe-4 - Pass Details

Date: 21 January 2021
Orbit: 480 x 484 km, 98.2° (Epoch: 25 February)

Event Time Altitude Azimuth Distance (km) Brightness Sun altitude
Exits shadow 18:05:45 32° 357° (N) 850 4.7 -21.2°
Maximum altitude 18:07:13 64° 287° (WNW) 540 3.9 -21.5°
Drops below altitude 10° 18:10:44 10° 205° (SSW) 1,655 6.6 -22.1°
Sets 18:12:48 0° 202° (SSW) 2,529 7.6 -22.5°
